When you browse on this site, cookies collect data to enhance your experience and personalize the content and advertising you see.
Visit our Privacy Policy to learn more. By continuing to use the site, you agree to this use of cookies and data.
  • In Hungary
  • List of Countries
  • For 7 days
  • Water Temperature
  • Weather Map
  • News
  • Weather Widgets
  • user-avatar
    Login

    Hourly Weather Rekord

    Today, 25 February, Tuesday

    Time Temperature Precipitation Wind Pressure Humidity
    00:00 0°C° 0.2 mm 5 mps 743 mmHg 98%
    01:00 -1°C° 0.8 mm 6 mps 742 mmHg 98%
    02:00 -1°C° 0.8 mm 7 mps 742 mmHg 97%
    03:00 -1°C° 0 mm 8 mps 741 mmHg 97%
    04:00 -1°C° 1 mm 8 mps 740 mmHg 97%
    05:00 -1°C° 1 mm 8 mps 740 mmHg 97%
    06:00 -1°C° 1 mm 7 mps 739 mmHg 97%
    07:00 -1°C° 0.9 mm 8 mps 739 mmHg 97%
    08:00 -1°C° 0.9 mm 8 mps 738 mmHg 97%
    09:00 -1°C° 0 mm 9 mps 737 mmHg 98%
    10:00 -1°C° 0.1 mm 8 mps 737 mmHg 96%
    11:00 -1°C° 0.1 mm 8 mps 737 mmHg 94%
    12:00 -1°C° 0.1 mm 8 mps 737 mmHg 91%
    13:00 -1°C° 0.1 mm 7 mps 736 mmHg 93%
    14:00 -2°C° 0.1 mm 6 mps 736 mmHg 95%
    15:00 -1°C° 0 mm 5 mps 736 mmHg 97%
    16:00 -1°C° 0.1 mm 5 mps 736 mmHg 97%
    17:00 -1°C° 0.1 mm 5 mps 737 mmHg 97%
    18:00 -1°C° 0.1 mm 5 mps 737 mmHg 97%
    19:00 -2°C° 0.2 mm 7 mps 738 mmHg 93%
    20:00 -3°C° 0.2 mm 9 mps 739 mmHg 90%
    21:00 -4°C° 0.2 mm 11 mps 740 mmHg 86%
    22:00 -4°C° 0 mm 10 mps 741 mmHg 82%
    23:00 -4°C° 0 mm 10 mps 742 mmHg 78%

    Tomorrow, 26 February, Wednesday

    Time Temperature Precipitation Wind Pressure Humidity
    00:00 -4°C° 0 mm 10 mps 743 mmHg 74%
    01:00 -5°C° 0 mm 9 mps 744 mmHg 74%
    02:00 -5°C° 0 mm 9 mps 745 mmHg 73%
    03:00 -6°C° 0 mm 8 mps 746 mmHg 73%
    04:00 -6°C° 0 mm 7 mps 746 mmHg 74%
    05:00 -6°C° 0 mm 7 mps 747 mmHg 75%
    06:00 -5°C° 0 mm 6 mps 748 mmHg 76%
    07:00 -5°C° 0 mm 6 mps 748 mmHg 75%
    08:00 -5°C° 0 mm 5 mps 749 mmHg 75%
    09:00 -3°C° 0 mm 4 mps 749 mmHg 74%
    10:00 -2°C° 0 mm 4 mps 750 mmHg 71%
    11:00 -2°C° 0 mm 5 mps 750 mmHg 68%
    12:00 -1°C° 0 mm 5 mps 750 mmHg 65%
    13:00 0°C° 0 mm 4 mps 750 mmHg 66%
    14:00 0°C° 0 mm 4 mps 750 mmHg 67%
    15:00 +1°C° 0 mm 4 mps 750 mmHg 68%
    16:00 0°C° 0 mm 4 mps 750 mmHg 74%
    17:00 0°C° 0 mm 4 mps 750 mmHg 80%
    18:00 -1°C° 0 mm 4 mps 750 mmHg 86%
    19:00 -1°C° 0 mm 4 mps 750 mmHg 87%
    20:00 -1°C° 0 mm 4 mps 750 mmHg 88%
    21:00 -1°C° 0 mm 5 mps 750 mmHg 90%
    22:00 -1°C° 0 mm 5 mps 750 mmHg 89%
    23:00 -1°C° 0 mm 6 mps 750 mmHg 88%

    Day after tomorrow, 27 February, Thursday

    Time Temperature Precipitation Wind Pressure Humidity
    00:00 -1°C° 0 mm 6 mps 750 mmHg 87%
    01:00 -1°C° 0 mm 6 mps 749 mmHg 84%
    02:00 -1°C° 0 mm 6 mps 749 mmHg 81%
    03:00 -1°C° 0 mm 6 mps 749 mmHg 79%
    04:00 -1°C° 0 mm 6 mps 749 mmHg 77%
    05:00 -2°C° 0 mm 6 mps 749 mmHg 75%
    06:00 -2°C° 0 mm 6 mps 749 mmHg 74%
    07:00 -1°C° 0 mm 7 mps 749 mmHg 72%
    08:00 -1°C° 0 mm 7 mps 749 mmHg 70%
    09:00 -1°C° 0 mm 7 mps 749 mmHg 67%
    10:00 0°C° 0 mm 7 mps 749 mmHg 67%
    11:00 +1°C° 0 mm 8 mps 749 mmHg 66%
    12:00 +2°C° 0 mm 8 mps 749 mmHg 65%
    13:00 +2°C° 0 mm 8 mps 748 mmHg 66%
    14:00 +4°C° 0 mm 7 mps 748 mmHg 68%
    15:00 +4°C° 0 mm 7 mps 748 mmHg 69%
    16:00 +3°C° 0 mm 7 mps 748 mmHg 71%
    17:00 +3°C° 0 mm 7 mps 747 mmHg 73%
    18:00 +2°C° 0 mm 6 mps 747 mmHg 75%
    19:00 +2°C° 0 mm 7 mps 747 mmHg 77%
    20:00 +2°C° 0 mm 7 mps 747 mmHg 79%
    21:00 +2°C° 0 mm 7 mps 747 mmHg 80%
    22:00 +2°C° 0 mm 7 mps 747 mmHg 82%
    23:00 +2°C° 0 mm 7 mps 747 mmHg 83%

    28 February, Friday

    Time Temperature Precipitation Wind Pressure Humidity
    00:00 +2°C° 0 mm 6 mps 747 mmHg 84%
    01:00 +2°C° 0 mm 6 mps 747 mmHg 85%
    02:00 +1°C° 0 mm 6 mps 747 mmHg 87%
    03:00 +1°C° 0 mm 6 mps 747 mmHg 88%
    04:00 +1°C° 0 mm 6 mps 746 mmHg 89%
    05:00 +1°C° 0 mm 6 mps 746 mmHg 90%
    06:00 +1°C° 0 mm 6 mps 746 mmHg 91%
    07:00 +1°C° 0 mm 6 mps 746 mmHg 91%
    08:00 +2°C° 0 mm 6 mps 746 mmHg 90%
    09:00 +2°C° 0 mm 6 mps 746 mmHg 90%
    10:00 +3°C° 0 mm 7 mps 746 mmHg 87%
    11:00 +4°C° 0 mm 7 mps 746 mmHg 85%
    12:00 +4°C° 0 mm 7 mps 746 mmHg 82%
    13:00 +5°C° 0 mm 7 mps 746 mmHg 78%
    14:00 +5°C° 0 mm 8 mps 745 mmHg 74%
    15:00 +5°C° 0 mm 8 mps 745 mmHg 71%
    16:00 +4°C° 0 mm 7 mps 745 mmHg 69%
    17:00 +4°C° 0 mm 7 mps 744 mmHg 68%
    18:00 +3°C° 0 mm 6 mps 744 mmHg 67%
    19:00 +3°C° 0.3 mm 6 mps 744 mmHg 71%
    20:00 +2°C° 0.3 mm 6 mps 744 mmHg 76%
    21:00 +2°C° 0.3 mm 6 mps 744 mmHg 81%
    22:00 +2°C° 0.2 mm 6 mps 744 mmHg 81%
    23:00 +1°C° 0.2 mm 6 mps 745 mmHg 82%

    29 February, Saturday

    Time Temperature Precipitation Wind Pressure Humidity
    00:00 +1°C° 0.2 mm 6 mps 745 mmHg 83%
    01:00 +1°C° 0 mm 6 mps 745 mmHg 82%
    02:00 -1°C° 0 mm 7 mps 746 mmHg 81%
    03:00 -1°C° 0 mm 7 mps 746 mmHg 80%
    04:00 -2°C° 0 mm 6 mps 747 mmHg 80%
    05:00 -1°C° 0 mm 5 mps 747 mmHg 79%
    06:00 -2°C° 0 mm 4 mps 748 mmHg 79%
    07:00 -1°C° 0 mm 4 mps 749 mmHg 78%
    08:00 -1°C° 0 mm 4 mps 749 mmHg 77%
    09:00 -1°C° 0 mm 4 mps 750 mmHg 76%
    10:00 +1°C° 0 mm 3 mps 750 mmHg 70%
    11:00 +2°C° 0 mm 3 mps 750 mmHg 65%
    12:00 +3°C° 0 mm 3 mps 751 mmHg 59%
    13:00 +3°C° 0 mm 3 mps 751 mmHg 57%
    14:00 +5°C° 0 mm 2 mps 751 mmHg 55%
    15:00 +5°C° 0 mm 2 mps 751 mmHg 53%
    16:00 +4°C° 0 mm 2 mps 751 mmHg 57%
    17:00 +4°C° 0 mm 1 mps 751 mmHg 62%
    18:00 +3°C° 0 mm 1 mps 751 mmHg 66%
    19:00 +3°C° 0 mm 1 mps 752 mmHg 68%
    20:00 +3°C° 0 mm 1 mps 752 mmHg 69%
    21:00 +2°C° 0 mm 1 mps 752 mmHg 71%
    22:00 +2°C° 0 mm 1 mps 752 mmHg 73%
    23:00 +2°C° 0 mm 1 mps 752 mmHg 74%

    1 March, Sunday

    Time Temperature Precipitation Wind Pressure Humidity
    00:00 +1°C° 0 mm 2 mps 753 mmHg 76%
    01:00 +1°C° 0 mm 2 mps 753 mmHg 77%
    02:00 -1°C° 0 mm 2 mps 753 mmHg 79%
    03:00 -1°C° 0 mm 2 mps 753 mmHg 80%
    04:00 -1°C° 0 mm 2 mps 753 mmHg 81%
    05:00 -1°C° 0 mm 2 mps 753 mmHg 82%
    06:00 -1°C° 0 mm 2 mps 753 mmHg 83%
    07:00 -1°C° 0 mm 2 mps 754 mmHg 80%
    08:00 +1°C° 0 mm 2 mps 754 mmHg 76%
    09:00 +1°C° 0 mm 2 mps 754 mmHg 73%
    10:00 +2°C° 0 mm 2 mps 754 mmHg 68%
    11:00 +2°C° 0 mm 3 mps 755 mmHg 62%
    12:00 +3°C° 0 mm 3 mps 755 mmHg 57%
    13:00 +3°C° 0 mm 3 mps 755 mmHg 57%
    14:00 +3°C° 0 mm 3 mps 754 mmHg 57%
    15:00 +3°C° 0 mm 4 mps 754 mmHg 58%
    16:00 +2°C° 0 mm 3 mps 755 mmHg 63%
    17:00 +2°C° 0 mm 3 mps 755 mmHg 68%
    18:00 +1°C° 0 mm 3 mps 755 mmHg 73%
    19:00 0°C° 0 mm 3 mps 755 mmHg 77%
    20:00 -1°C° 0 mm 3 mps 756 mmHg 80%
    21:00 -1°C° 0 mm 3 mps 756 mmHg 84%
    22:00 -1°C° 0 mm 2 mps 756 mmHg 84%
    23:00 -2°C° 0 mm 2 mps 756 mmHg 84%
    Show more